Notices

What's New in latest Release from April 7th, 2021:

- Updated Glossary, including Speed of Maximum Gust, and Total Hourly Precipitation

- Updated national and regional climate services offices contacts and prices information

- Addition of station inventory lists for 1981-2010, 1971-2000, and 1961-1990 Normals.

If you haven't already, please take our survey and provide feedback about our website: https://eccc.sondage-survey.ca/f/LanguageSelection.aspx?s=442ca660-fcf1-47c0-95a9-59707d6fd709

Hourly Data Report for January 05, 2021

OTTAWA INTL A
ONTARIO
Current Station Operator: NAVCAN

45°19'00.000" N
75°40'00.000" W
114.90 m
6106001
71628
YOW

Download Data

Hourly Data (January 2021)
Hourly Data Report for January 5, 2021
TIME
LST
Temp Definition
°C
Dew Point Definition
°C
Rel Hum Definition
%
Precip. Amount Definition
mm

Wind Dir Definition
10's deg

Wind Spd Definition
km/h
Visibility Definition
km
Stn Press Definition
kPa
Hmdx Definition


Wind Chill Definition


Weather Definition


00:00 -2.2 -2.7 96   5 11 6.4 100.20   -6 Fog
01:00 -2.2 -2.7 96   5 12 6.4 100.18   -6 Fog
02:00 -2.2 -2.7 96   6 13 6.4 100.17   -7 Fog
03:00 -2.3 -2.9 96   7 13 6.4 100.18   -7 Fog
04:00 -2.5 -3.1 95   6 13 6.4 100.18   -7 Fog
05:00 -2.6 -3.3 95   6 15 6.4 100.15   -8 Fog
06:00 -2.7 -3.5 94   7 12 6.4 100.18   -7 Fog
07:00 -2.8 -3.8 93   9 14 8.1 100.22   -8 Fog
08:00 -2.9 -3.8 94   10 10 11.3 100.26   -7 LegendNANA
09:00 -3.0 -3.9 94   8 12 4.0 100.29   -7 Snow
10:00 -3.0 -4.0 93   8 10 4.0 100.32   -7 Snow
11:00 -3.0 -4.2 92   7 12 3.2 100.27   -7 Snow
12:00 -2.8 -4.7 87   5 10 6.4 100.23   -7 Snow
13:00 -2.1 -4.6 83   7 11 24.1 100.18   -6 Mostly Cloudy
14:00 -2.0 -4.6 83   5 8 24.1 100.18   -5 LegendNANA
15:00 -1.8 -4.4 83   7 6 24.1 100.24   -4 LegendNANA
16:00 -2.0 -4.1 86   9 5 16.1 100.31   -4 Cloudy
17:00 -2.4 -3.9 89   12 7 24.1 100.36   -5 LegendNANA
18:00 -2.4 -4.3 87   12 4 24.1 100.40   -4 LegendNANA
19:00 -2.7 -4.5 87   25 3 24.1 100.42   -4 Cloudy
20:00 -2.7 -4.6 87   16 3 24.1 100.43   -4 LegendNANA
21:00 -2.7 -4.8 86   18 5 24.1 100.44   -5 LegendNANA
22:00 -2.9 -4.6 88   14 6 24.1 100.44   -5 Cloudy
23:00 -3.0 -4.7 88   18 5 80.5 100.45   -5 LegendNANA

Notes on Data Quality.

Legend

  • E = Estimated
  • M = Missing
  • NA = Not Available*
  • [empty] = Indicates an unobserved value
Date modified: